Regional Weather Roundup
Issued by NWS

Home | Current Version | Previous Version | Graphics & Text | Print | Product List | Glossary On
Versions: 1 2 3 4 5 6 7 8 9 10 11 12 13 14 15 16 17 18 19 20 21 22 23 24 25 26 27 28 29 30 31 32 33 34 35 36 37 38 39 40 41 42 43 44 45 46 47 48 49 50
000
ASUS44 KMEG 201500
RWRTN
TENNESSEE HOURLY STATE WEATHER ROUNDUP
NATIONAL WEATHER SERVICE MEMPHIS TN
1000 AM CDT THU JUL 20 2017

TNZ002-004-019-021-049-052-054-088>092-201600-
WEST TENNESSEE

CITY           SKY/WX    TMP DP  RH WIND       PRES   REMARKS
MEMPHIS INTL   MOSUNNY   92  75  57 W9        30.13S HX 103
NWS MEMPHIS      N/A     90 N/A N/A MISG        N/A
JACKSON        SUNNY     89  75  63 W6        30.14R HX  99
$$

TNZ008-025-027-028-033-062-065-066-201600-
NORTH MIDDLE TENNESSEE

CITY           SKY/WX    TMP DP  RH WIND       PRES   REMARKS
NASHVILLE      MOSUNNY   89  73  59 NW3       30.15F HX  97
CLARKSVILLE    SUNNY     87  73  62 W7        30.14F HX  94
SMYRNA         SUNNY     87  76  69 N5        30.16S HX  97
CROSSVILLE     PTSUNNY   81  68  64 NW7       30.22S
$$

TNZ061-075-076-078-094-096-097-201600-
SOUTH MIDDLE TENNESSEE

CITY           SKY/WX    TMP DP  RH WIND       PRES   REMARKS
WINCHESTER     SUNNY     86  73  66 VRB3      30.16S HX  93
MCMINNVILLE    SUNNY     84  75  74 NW7       30.18R HX  92
$$

TNZ017-018-042-046-047-201600-
NORTHEAST TENNESSEE

CITY           SKY/WX    TMP DP  RH WIND       PRES   REMARKS
TRI CITIES     MOSUNNY   83  68  60 W6        30.19S
$$

TNZ012-013-036-069-073-074-201600-
CENTRAL EAST TENNESSEE

CITY           SKY/WX    TMP DP  RH WIND       PRES   REMARKS
KNOXVILLE      PTSUNNY   85  68  56 NW7       30.15F
OAK RIDGE      PTSUNNY   84  69  60 CALM      30.17S
GATLINBURG     MOSUNNY   84  66  54 VRB3      30.16S
$$

TNZ083-085-099-201600-
SOUTHEAST TENNESSEE

CITY           SKY/WX    TMP DP  RH WIND       PRES   REMARKS
CHATTANOOGA    MOSUNNY   88  71  57 CALM      30.15S HX  94
$$

SKY/WX REPORTED AS FAIR MEANS FEW OR NO CLOUDS BELOW
12 THOUSAND FEET.




USA.gov is the U.S. government's official web portal to all federal, state and local government web resources and services.